User: anonymous   Login
Location: Acton
(51.4942°N, 0.2232°W)
Time: 17:45:47
(UTC+00:00)
Language:

Cosmos 2278 Rocket - Orbit

View from above orbital plane
View from above orbital plane
View from above satellite
View from above satellite

Ground track
Ground track

The orbit data is extracted from the following two-line orbital elements,

1 23088U 94023B   20330.96968293 -.00000357  00000-0 -16066-3 0  9998
2 23088  70.9973 162.1100 0004544 317.5795  42.4976 14.14686223373421
Epoch (UTC): 25 November 2020 23:16:20
Eccentricity: 0.0004544
inclination: 70.9973°
perigee height: 840 km
apogee height: 846 km
right ascension of ascending node: 162.1100°
argument of perigee: 317.5795°
revolutions per day: 14.14686223
mean anomaly at epoch: 42.4976°
orbit number at epoch: 37342

The dashed part of the orbit path shows where the satellite is in the earth's shadow,  

DLR